Nederland, TX

8:15 AM CST on February 10, 2016 (GMT -0600)
Southeast Texas Regional

Weather History for KBPT - November, 2011

Change the Weather History Date:

Monday, November 14, 2011

  Actual Average Record
Temperature  
Mean Temperature 75 °F 62 °F  
Max Temperature 83 °F 72 °F 86 °F (1978)
Min Temperature 67 °F 52 °F 26 °F (1916)
Degree Days  
Heating Degree Days 0 5  
Month to date heating degree days 53 52  
Since 1 July heating degree days 90 86  
Cooling Degree Days 10 2  
Month to date cooling degree days 55 40  
Year to date cooling degree days 3430 2831  
Growing Degree Days 24 (Base 50)    
Moisture  
Dew Point 67 °F    
Average Humidity 74    
Maximum Humidity 93    
Minimum Humidity 55    
Precipitation  
Precipitation 0.00 in 0.15 in 1.54 in (1998)
Month to date precipitation 0.44 2.12  
Year to date precipitation 26.25 52.90  
Snow  
Snow 0.00 in 0.00 in 0.00 in ()
Month to date snowfall 0.0 0.0  
Since 1 July snowfall 0.0 0.0  
Since 1 September snowfall 0.0 0.0  
Snow Depth 0.00 in    
Sea Level Pressure  
Sea Level Pressure 29.91 in    
Wind  
Wind Speed 11 mph (SSE)    
Max Wind Speed 20 mph    
Max Gust Speed 26 mph    
Visibility 10 miles    
Events      
T = Trace of Precipitation, MM = Missing Value Source: NWS Daily Summary

Daily Weather History Graph

Daily Weather History Graph

Search for Another Location

Airport or City:

Trip Planner

Search our weather history database for the weather conditions in past years. The results will help you decide how hot, cold, wet, or windy it might be!

Date:

Astronomy

Nov. 14, 2011 Rise Set
Actual Time 6:40 AM CST 5:20 PM CST
Civil Twilight 6:14 AM CST 5:45 PM CST
Nautical Twilight 5:45 AM CST 6:14 PM CST
Astronomical Twilight 5:17 AM CST 6:43 PM CST
Moon 8:33 PM CST (11/14) 9:53 AM CST (11/14)
Length of Visible Light 11h 31m
Length of Day
10h 40m
Waning Gibbous, 86% of the Moon is Illuminated
Nov 14
Waning Gibbous
Nov 18
Last Quarter
Nov 25
New
Dec 2
First Quarter
Dec 10
Full

Hourly Weather History & Observations

Time (CST) Temp. Heat Index Dew Point Humidity Pressure Visibility Wind Dir Wind Speed Gust Speed Precip Events Conditions
12:53 AM 71.1 °F - 66.9 °F 87% 29.95 in - South 8.1 mph - N/A   Clear
1:53 AM 71.1 °F - 66.9 °F 87% 29.94 in - South 8.1 mph - N/A   Clear
2:53 AM 69.1 °F - 66.9 °F 93% 29.95 in - South 5.8 mph - N/A   Clear
3:53 AM 68.0 °F - 66.0 °F 93% 29.94 in - South 6.9 mph - N/A   Clear
4:53 AM 69.1 °F - 66.9 °F 93% 29.94 in - South 5.8 mph - N/A   Clear
5:53 AM 66.9 °F - 64.9 °F 93% 29.94 in - SSE 4.6 mph - N/A   Clear
6:53 AM 69.1 °F - 66.9 °F 93% 29.94 in 8.0 mi South 8.1 mph - N/A   Clear
7:53 AM 73.0 °F - 68.0 °F 84% 29.95 in - South 9.2 mph - N/A   Clear
8:53 AM 75.9 °F - 69.1 °F 79% 29.95 in - South 15.0 mph - N/A   Clear
9:53 AM 80.1 °F 82.3 °F 66.9 °F 64% 29.96 in 8.0 mi South 16.1 mph - N/A   Scattered Clouds
10:53 AM 81.0 °F 83.0 °F 66.0 °F 60% 29.96 in 10.0 mi South 15.0 mph 26.5 mph N/A   Overcast
11:53 AM 82.0 °F 84.1 °F 66.0 °F 58% 29.94 in 10.0 mi South 17.3 mph 23.0 mph N/A   Mostly Cloudy
12:53 PM 81.0 °F 83.0 °F 66.0 °F 60% 29.90 in 10.0 mi South 18.4 mph 23.0 mph N/A   Clear
1:53 PM 82.9 °F 84.6 °F 64.9 °F 54% 29.87 in 10.0 mi South 17.3 mph 23.0 mph N/A   Clear
2:53 PM 81.0 °F 82.5 °F 64.0 °F 56% 29.86 in 10.0 mi South 13.8 mph 23.0 mph N/A   Clear
3:53 PM 79.0 °F - 66.0 °F 64% 29.85 in 10.0 mi South 15.0 mph 21.9 mph N/A   Clear
4:53 PM 75.9 °F - 68.0 °F 76% 29.85 in 10.0 mi SSE 11.5 mph - N/A   Clear
5:53 PM 73.0 °F - 68.0 °F 84% 29.85 in 10.0 mi SSE 9.2 mph - N/A   Clear
6:53 PM 71.6 °F - 66.2 °F 83% 29.86 in 10.0 mi SE 11.5 mph - N/A   Clear
7:53 PM 71.1 °F - 66.9 °F 87% 29.86 in 10.0 mi ESE 6.9 mph - N/A   Clear
8:53 PM 72.0 °F - 68.0 °F 87% 29.86 in 10.0 mi SE 13.8 mph - N/A   Clear
9:53 PM 72.0 °F - 69.1 °F 91% 29.87 in 10.0 mi SSE 11.5 mph - N/A   Clear
10:53 PM 72.0 °F - 69.1 °F 91% 29.87 in 9.0 mi SSE 9.2 mph - N/A   Clear
11:53 PM 71.1 °F - 69.1 °F 93% 29.86 in 10.0 mi SSE 8.1 mph - N/A   Clear